Regional Weather Roundup
Issued by NWS

Home | Current Version | Previous Version | Graphics & Text | Print | Product List | Glossary Off
Versions: 1 2 3 4 5 6 7 8 9 10 11 12 13 14 15 16 17 18 19 20 21 22 23 24 25 26 27 28 29 30 31 32 33 34 35 36 37 38 39 40 41 42 43 44 45 46 47 48 49 50

374
ASUS43 KMPX 261610
RWRMN
WEATHER ROUNDUP FOR MINNESOTA
NATIONAL WEATHER SERVICE TWIN CITIES/CHANHASSEN MN
1100 AM CDT TUE SEP 26 2017


NOTE: "FAIR" INDICATES FEW OR NO CLOUDS BELOW 12,000 FEET WITH NO
SIGNIFICANT WEATHER AND/OR OBSTRUCTIONS TO VISIBILITY. N/A MEANS
CURRENT SKY AND/OR WEATHER CONDITIONS ARE NOT AVAILABLE.

MNZ060>063-068>070-261700-
   Twin Cities Metro

CITY           SKY/WX    TMP DP  RH WIND       PRES   REMARKS
TWIN CITIES    CLOUDY    60  57  89 W13       29.96R
ST PAUL        CLOUDY    60  57  89 W9        29.96R
CRYSTAL        CLOUDY    58  54  86 W13       29.96R
BLAINE         DRIZZLE   59  59 100 W10       29.96R
LAKEVILLE      CLOUDY    59  57  94 W6        29.98R
EDEN PRAIRIE   CLOUDY    60  56  86 W13       29.97R
SOUTH ST PAUL  CLOUDY    60  57  89 W9        29.96R
LAKE ELMO      CLOUDY    59  57  94 W7        29.97R
$$
MNZ001>005-007-008-013>017-022>024-027-028-261700-
   Northwest Minnesota

CITY           SKY/WX    TMP DP  RH WIND       PRES   REMARKS
BEMIDJI        LGT RAIN  50  49  97 NW7       30.01S
HALLOCK        LGT RAIN  50  48  93 N6        30.08S
ROSEAU         RAIN      50  45  81 N7        30.06S
WARROAD        DRIZZLE   52  46  82 NW7       30.05S
CROOKSTON      RAIN      50  48  93 N6        30.07S
FOSSTON        DRIZZLE   48  48 100 N10       30.03F
DETROIT LAKES  LGT RAIN  50  50 100 NW8       30.06R
MOORHEAD       CLOUDY    50  48  93 NW9       30.07F
PARK RAPIDS    CLOUDY    53  50  89 NW10      30.00S
MAHNOMEN       LGT RAIN  49  48  95 NW6       30.04R
$$
MNZ006-009>011-018-025>026-261700-
   North Central Minnesota

CITY           SKY/WX    TMP DP  RH WIND       PRES   REMARKS
BAUDETTE       LGT RAIN  50  49  96 NE8       30.03S
FLAG ISLAND    CLOUDY    50  45  81 CALM      30.05R
INTL FALLS     CLOUDY    51  47  86 NE5       30.00R
WASKISH        DRIZZLE   48  48 100 N5        30.01F
BIG FORK       RAIN      52  48  87 N6        29.98F
LONGVILLE      DRIZZLE   52  52 100 NW5       29.98R
GRAND RAPIDS   LGT RAIN  52  51  97 N7        29.98R FOG
CRANE LAKE     DRIZZLE   48  48 100 NE6       29.98F
ORR            LGT RAIN  50  46  87 CALM      29.94F
COOK           DRIZZLE   52  50  93 NE5       29.95F
WALKER         DRIZZLE   50  49  97 NW7       30.00R
$$
MNZ012-019>021-037-261700-
   Northeast Minnesota

CITY           SKY/WX    TMP DP  RH WIND       PRES   REMARKS
DULUTH         CLOUDY    53  53 100 E9        29.92S
ELY            CLOUDY    52  50  93 NE8       29.94F
HIBBING        LGT RAIN  51  50  96 N5        29.94S FOG
EVELETH        DRIZZLE   53  51  95 NE6       29.93F
DULUTH HARBOR  CLOUDY    55  55 100 NE18      29.92S
TWO HARBORS    DRIZZLE   57  52  82 E6        29.90F
GRAND MARAIS     N/A     56  53  90 NE6       29.93F
G MARAIS ARPRT DRIZZLE   48  46  93 N8        29.95F
$$
MNZ029>031-032-039>041-046>048-054>057-064-261700-
   West Central Minnesota

CITY           SKY/WX    TMP DP  RH WIND       PRES   REMARKS
FERGUS FALLS   CLOUDY    52  52 100 N7        30.06F
WHEATON        CLOUDY    54  48  82 NW9       30.09R
MORRIS         CLOUDY    55  52  88 N10       30.04
ALEXANDRIA     CLOUDY    53  52  96 NW14G21   30.04S FOG
ELBOW LAKE     CLOUDY    51  50  97 W12       30.06S
WADENA         CLOUDY    52  52 100 W7        30.02R
GLENWOOD       PTSUNNY   54  52  94 W16       30.04S FOG
APPLETON       PTSUNNY   55  50  82 NW10      30.06R
BENSON         CLOUDY    55  52  88 N10       30.06S
ORTONVILLE     CLOUDY    52  48  87 NW12      30.08R
MADISON        CLOUDY    55  55 100 NW14G20   30.08R
WILLMAR        CLOUDY    54  54 100 NW16G22   30.05S
$$
MNZ033>034-036-042>043-049>051-058-059-261700-
   Central Minnesota

CITY           SKY/WX    TMP DP  RH WIND       PRES   REMARKS
ST CLOUD       CLOUDY    56  55  97 NW16      29.98R
SAUK CENTRE    CLOUDY    53  51  92 NW14G20   30.03R FOG
PAYNESVILLE    LGT RAIN  55  54  96 W12G17    30.03R
AITKIN         CLOUDY    54  52  94 NW3       29.95R FOG
PINE RIVER     DRIZZLE   50  48  93 NW6       30.02R
BRAINERD       LGT RAIN  53  52  96 NW13      29.98R FOG
STAPLES        CLOUDY    52  52 100 NW10      30.00R
LONG PRAIRIE   CLOUDY    54  52  94 W9        30.02R FOG
LITTLE FALLS   CLOUDY    54  48  82 NW6       29.99R
LITCHFIELD     CLOUDY    57  57 100 W16       30.02R
BUFFALO        CLOUDY    56  53  88 W7        29.99R
MAPLE LAKE     CLOUDY    58  56  94 NW12      30.00R
HUTCHINSON     CLOUDY    59  55  86 W10G17    30.02R
$$
MNZ037-044-045-052-053-261700-
   East Central Minnesota

CITY           SKY/WX    TMP DP  RH WIND       PRES   REMARKS
PRINCETON      CLOUDY    57  55  94 W9        29.96R
MORA           CLOUDY    55  54  94 NW5       29.95S FOG
CAMBRIDGE      CLOUDY    59  57  94 W9        29.95R FOG
RUSH CITY      CLOUDY    58  55  92 W6        29.93S
MOOSE LAKE     CLOUDY    54  54 100 NE6       29.91S FOG
HINCKLEY       CLOUDY    57  57 100 N3        29.92S FOG
CLOQUET        DRIZZLE   54  52  94 NE5       29.93R
MCGREGOR       CLOUDY    54  54 100 N6        29.94S
$$
MNZ071>073-080-081-089-090-097-098-261700-
   Southwest Minnesota

CITY           SKY/WX    TMP DP  RH WIND       PRES   REMARKS
MONTEVIDEO     CLOUDY    55  55 100 N6        30.05F
GRANITE FALLS  PTSUNNY   57  54  88 NW10      30.07S
CANBY          CLOUDY    57  52  84 W12       30.09R
MARSHALL       PTSUNNY   56  51  84 N12       30.07S
REDWOOD FALLS  CLOUDY    56  52  86 NW13G22   30.05R
OLIVIA         CLOUDY    54  52  94 NW16G22   30.04R
PIPESTONE      CLOUDY    54  50  87 NW9       30.10R
WORTHINGTON    CLOUDY    55  50  83 NW10      30.09R
JACKSON        CLOUDY    54  52  94 NW10      30.07S FOG
TRACY          CLOUDY    56  53  90 NW9       30.08R
SLAYTON        CLOUDY    55  44  68 NW13      30.08R
$$
MNZ065>067-074>077-082>085-091>093-261700-
   South Central Minnesota

CITY           SKY/WX    TMP DP  RH WIND       PRES   REMARKS
MANKATO        CLOUDY    58  55  90 W14       30.03R
NEW ULM        CLOUDY    55  54  94 W13       30.04R FOG
ST JAMES       CLOUDY    55  55 100 W12       30.06R
FAIRMONT       CLOUDY    57  53  86 NW13G21   30.06R
FARIBAULT      CLOUDY    59  57  94 W14       30.00R
OWATONNA       CLOUDY    59  55  88 W14       30.01R
WASECA         CLOUDY    55  55 100 W13G18    30.03R
ALBERT LEA     CLOUDY    59  59 100 W8        30.02R
$$
MNZ078>079-086>088-094>096-261700-
   Southeast Minnesota

CITY           SKY/WX    TMP DP  RH WIND       PRES   REMARKS
ROCHESTER      CLOUDY    60  58  92 W9        30.00R
RED WING       CLOUDY    63  55  77 W12       29.95R
STANTON        CLOUDY    60  56  85 W9G16     29.98R
DODGE CENTER   CLOUDY    57  55  94 W14       29.99S
WINONA         CLOUDY    70  64  83 NW10      29.94R
AUSTIN         CLOUDY    59  55  88 W13       30.00R
PRESTON        CLOUDY    64  60  88 W10       29.98R
$$
ABBREVIATIONS USED IN REMARKS
   TC - TEMPERATURES IN CELSIUS
  WCI - WIND CHILL INDEX
   HX - HEAT INDEX
  VSB - VISIBILITY
$$




USA.gov is the U.S. government's official web portal to all federal, state and local government web resources and services.